Location: Bonn
(50.7330°N, 7.1000°E)
Time: 14:05:32
(UTC+02:00)

Daily predictions for brighter satellites

Satellite Brightness Start Highest point End
(mag) Time Altitude Azimuth Time Altitude Azimuth Time Altitude Azimuth
Cosmos 1680 Rocket 4.0 19:42:54 10° SSW 19:48:12 68° WNW 19:53:33 10° NNE
Meteor 1-29 4.4 19:52:18 10° NE 19:54:55 19° E 19:57:30 10° SE
Cosmos-2242 4.1 19:53:08 10° SE 19:56:39 24° E 20:00:13 10° NNE
Lacrosse 4 Rocket 4.2 19:56:07 10° NW 19:57:54 12° NNW 19:59:41 10° N
NOSS 3-2 (C) 4.1 19:54:21 10° S 19:59:52 36° ESE 20:05:50 10° NE
METEOR-M 4.1 19:54:40 10° SSE 19:59:58 68° ENE 20:05:19 10° N
SKYMED 2 3.7 19:57:17 10° NNE 20:01:40 81° WNW 20:06:01 10° SSW
Cosmos 1766 3.4 19:58:15 10° S 20:02:07 55° E 20:06:04 10° NNE
Cosmos 2219 Rocket 3.0 19:56:53 10° SW 20:02:25 57° NW 20:08:02 10° NNE
Cosmos 2360 Rocket 4.5 19:59:09 10° W 20:03:36 23° NW 20:08:04 10° NNE
Cosmos 2278 Rocket 4.2 19:59:01 10° NW 20:03:57 31° WSW 20:08:51 10° SSW
Cosmos 1420 Rocket 4.4 19:59:08 10° NNW 20:04:15 47° ENE 20:09:23 10° SE
ATLAS CENTAUR R/B 3.9 20:01:48 10° WNW 20:05:12 23° WSW 20:08:24 10° SSW
Cosmos 1408 Rocket 3.5 20:02:27 10° N 20:06:50 66° ENE 20:11:08 10° SSE
FENGYUN 3A 4.0 20:05:31 10° SE 20:10:36 46° ENE 20:15:46 10° N
Meteor 1-22 Rocket 4.0 20:09:18 10° S 20:14:37 82° E 20:19:56 10° NNE
CZ-4B DEB 3.4 20:11:59 10° SE 20:15:00 36° ENE 20:18:03 10° N
CZ-2D R/B 3.9 20:13:04 10° SE 20:16:38 35° ENE 20:20:13 10° N
ASTEX 1 4.1 20:13:11 10° NNE 20:17:32 30° E 20:21:51 10° SSE
Meteor 1-24 Rocket 4.5 20:12:37 10° NNW 20:18:13 57° W 20:23:34 10° S
Nadezhda 4 Rocket 4.1 20:13:20 10° N 20:19:32 54° ENE 20:25:37 10° SSE
BREEZE-M DEB (TANK) 4.4 20:04:11 10° WSW 20:21:48 64° S 20:25:57 16° ESE
Cosmos 2369 Rocket 2.7 20:17:12 10° NNW 20:22:35 42° NE 20:27:02 15° ESE
FREGAT/IRIS 3.5 20:19:53 10° S 20:22:55 52° W 20:25:58 10° NNW
Cosmos 1378 4.2 20:20:08 10° NNW 20:23:46 49° W 20:27:22 10° S
Cosmos 1072 Rocket 4.4 20:18:46 10° S 20:24:52 82° E 20:31:02 10° NNE
USA 186 2.5 20:25:07 20° ENE 20:25:07 20° ENE 20:26:56 10° NNE
Cosmos 1092 Rocket 4.3 20:20:12 10° N 20:26:12 46° ENE 20:32:05 10° SE
Cosmos 1544 3.8 20:23:05 10° SSE 20:26:26 32° E 20:29:50 10° NNE
Cosmos 1953 2.5 20:22:38 10° S 20:26:29 49° E 20:30:21 10° NNE
Spot 2 Rocket 3.6 20:21:42 10° SSE 20:26:45 83° WSW 20:31:50 10° NNW
Cosmos 1943 Rocket 3.4 20:22:31 10° NNW 20:27:14 26° NE 20:30:31 16° E
Resurs 1-3 3.5 20:23:46 10° SSE 20:28:10 82° ENE 20:32:35 10° NNW
Resurs 01 Rocket 1.8 20:23:57 10° SSE 20:28:24 80° WSW 20:32:53 10° NNW
Meteor 1-28 Rocket 3.3 20:25:36 10° N 20:29:21 80° WNW 20:33:04 10° SSW
USA 215 3.6 20:25:32 10° ENE 20:31:43 43° SE 20:37:52 10° SSW
Cosmos 1603 4.2 20:26:44 10° S 20:31:57 37° ESE 20:37:12 10° NE
COSMOS 2455 4.3 20:26:28 10° WSW 20:32:02 37° NW 20:37:38 10° NNE
Cosmos 1805 3.3 20:29:02 10° S 20:32:53 56° E 20:36:46 10° NNE
H-2A R/B 3.0 20:29:19 10° SSE 20:33:06 50° ENE 20:36:52 10° N
Cosmos 1743 Rocket 3.6 20:30:33 10° N 20:34:59 63° ENE 20:39:23 10° SSE
Envisat 4.1 20:35:26 19° E 20:37:49 27° ENE 20:42:00 10° N
Meteor 2-12 Rocket 4.4 20:32:17 10° S 20:38:21 63° E 20:44:25 10° NNE
Helios 1A 3.5 20:38:43 10° S 20:42:52 62° WSW 20:47:03 10° NNW
Cosmos 2333 Rocket 3.6 20:39:38 10° WSW 20:45:02 40° NW 20:50:28 10° NNE
Cosmos 1634 Rocket 4.5 20:41:13 10° SSE 20:46:48 36° E 20:52:22 10° NNE
SPOT 5 4.3 20:47:58 16° ENE 20:48:21 17° ENE 20:51:06 10° NNE
Cosmos 1346 3.2 20:47:29 10° NNW 20:50:28 70° W 20:53:03 13° S
GP-B 3.6 20:47:16 10° NNE 20:51:27 38° E 20:53:38 23° SE
ERBS 3.2 20:49:02 10° NW 20:52:22 39° NNE 20:53:38 28° ENE
ATLAS 3B R/B 3.9 20:47:01 10° W 20:54:09 44° NNW 21:01:02 10° NE
Cosmos 1470 3.1 20:52:50 20° SSE 20:55:06 40° E 20:58:46 10° NNE
CZ-4C R/B 3.1 20:50:21 10° WSW 20:55:49 52° NW 21:02:07 10° NE
Cosmos 2034 Rocket 4.1 20:53:15 10° S 20:59:33 83° W 21:05:57 10° N
Cosmos 1464 Rocket 4.5 20:55:27 10° SSW 21:01:38 63° WNW 21:07:46 10° N
Cosmos 1733 3.5 21:04:32 41° ESE 21:04:57 43° E 21:08:39 10° NNE
Cosmos 1758 3.9 21:04:36 10° SSW 21:08:39 60° WNW 21:12:45 10° N
Cosmos 2237 Rocket 3.9 21:03:54 10° WSW 21:08:59 33° NW 21:14:06 10° NNE
NOSS 3-2 (A) 3.6 21:05:51 10° SW 21:12:06 82° NW 21:19:02 10° NE
ATLAS 5 CENTAUR R/B 1.8 21:08:22 10° SW 21:13:15 79° SE 21:18:38 10° NE
Cosmos 1674 3.0 21:10:04 10° NNW 21:13:57 68° W 21:16:41 18° S
SeaSat 1 2.8 21:09:58 10° NE 21:14:38 40° ESE 21:19:16 10° S
ALOS 3.0 21:10:27 10° S 21:15:01 53° W 21:19:37 10° NNW
Cosmos 1110 Rocket 4.1 21:10:25 10° NNW 21:15:40 59° ENE 21:17:32 38° ESE
ERS-1 Rocket 3.0 21:15:04 35° SE 21:16:57 58° ENE 21:21:54 10° N
Cosmos 1805 Rocket 4.1 21:13:41 10° N 21:17:52 39° ENE 21:17:54 39° ENE
Helios 1B rocket 3.5 21:15:48 10° N 21:19:45 46° WNW 21:23:41 10° SW
H-2A R/B 3.0 21:20:21 31° ENE 21:20:21 31° ENE 21:24:13 10° N
Cosmos 1627 Rocket 4.4 21:20:30 10° N 21:26:43 78° E 21:30:36 25° SSE
YAOGAN 11 3.9 21:26:46 56° SE 21:27:33 70° ENE 21:31:50 10° N
SL-16 R/B 3.3 21:23:16 10° WSW 21:28:42 44° NW 21:34:10 10° NNE
Cosmos 1633 Rocket 4.2 21:28:06 10° N 21:31:08 30° NE 21:31:08 30° NE
Cosmos-2242 4.4 21:29:54 10° SW 21:34:02 40° WNW 21:38:13 10° N
Cosmos 1939 Rocket 2.7 21:35:03 71° ENE 21:35:03 71° ENE 21:39:01 10° N
Cosmos 1328 3.8 21:31:23 10° NNW 21:35:23 79° W 21:36:00 61° SSW
Cosmos 1656 Rocket 4.3 21:31:39 10° NNW 21:36:38 35° NE 21:37:15 34° ENE
ARGOS 4.0 21:38:22 32° ENE 21:38:23 32° ENE 21:43:11 10° N
YAOGAN 6 4.4 21:40:39 22° NNE 21:40:39 22° NNE 21:42:20 10° N
Cosmos 2221 3.9 21:41:22 27° NE 21:41:22 27° NE 21:43:32 10° NNE
Cosmos 2151 3.1 21:38:21 10° NNW 21:42:34 70° W 21:43:28 51° SSW
Exosat Rocket 4.4 21:36:56 10° NNW 21:43:12 84° WSW 21:48:04 28° SSE
SL-24 R/B - RUBIN 2 4.5 21:36:33 10° NW 21:43:21 88° NE 21:45:26 47° SE
SL-14 R/B 3.4 21:42:07 10° N 21:45:45 70° N 21:45:45 70° N
CENTAUR R/B 2.6 21:41:05 10° SSW 21:47:03 52° ESE 21:53:47 10° NE
Cosmos 1842 Rocket 4.1 21:43:57 10° SSW 21:48:12 56° WNW 21:52:31 10° N
Cosmos 1331 Rocket 3.9 21:44:44 10° NNW 21:50:05 89° WSW 21:51:05 61° SSE
NOSS 3-2 (C) 3.9 21:44:11 10° WSW 21:50:25 65° NW 21:57:21 10° NE
Cosmos 2058 2.9 21:47:33 10° NNW 21:51:27 76° NW 21:51:27 76° NW
Terra 3.8 21:55:52 17° NE 21:55:52 17° NE 21:57:50 10° NNE
Cosmos 1666 Rocket 4.0 21:52:13 10° N 21:55:45 52° NNE 21:55:45 52° NNE
Cosmos 1626 4.3 21:54:45 10° N 21:55:57 18° NNE 21:55:57 18° NNE
Cosmos 1302 Rocket 3.9 21:55:53 10° NNW 22:01:04 72° ENE 22:01:04 72° ENE
BREEZE-M DEB (TANK) 3.5 21:53:17 10° WSW 22:02:35 76° S 22:02:54 72° SE
Cosmos 2369 Rocket 3.2 22:01:21 10° NW 22:06:39 42° WSW 22:08:51 29° SSW
Cosmos 1655 Rocket 4.2 22:02:50 10° NNW 22:09:02 68° W 22:11:36 36° SSW
Cosmos 2279 Rocket 3.8 22:09:21 56° S 22:10:46 83° E 22:17:01 10° N
Cosmos 1943 Rocket 2.1 22:05:58 10° NNW 22:11:37 78° WSW 22:12:04 73° SSW
Cosmos 1943 3.0 22:06:10 10° SSW 22:11:49 88° ESE 22:17:29 10° NNE
USA 215 3.2 22:11:26 29° ENE 22:15:06 81° NNW 22:21:38 10° WSW
Envisat 3.5 22:15:40 48° SW 22:16:33 54° W 22:21:33 10° NNW
H-2A R/B 3.3 22:20:29 30° NNE 22:20:29 30° NNE 22:23:39 10° N
Cosmos 2266 Rocket 3.9 22:17:19 10° N 22:23:32 70° ENE 22:23:32 70° ENE
Meteor 2-1 Rocket 4.2 22:24:21 77° SW 22:24:45 84° WNW 22:30:41 10° NNE
MetOp-B 4.1 22:26:02 78° WNW 22:26:02 78° WNW 22:31:09 10° NNW
SPOT 5 3.6 22:27:14 44° NNW 22:27:14 44° NNW 22:30:18 10° NNW
Aureole 3 4.4 22:22:57 10° NNW 22:29:39 72° W 22:30:04 69° SW
Sich 1 4.3 22:31:40 10° NNW 22:34:38 39° NW 22:34:38 39° NW
SPOT 1/Viking Rocket 4.1 22:43:13 53° NNW 22:43:13 53° NNW 22:47:08 10° NNW
CZ-4C R/B 4.2 22:40:40 10° WNW 22:45:48 28° N 22:51:18 11° NE
ATLAS 3B R/B 4.4 22:40:26 10° WNW 22:46:43 29° N 22:51:27 15° NE
SeaSat 1 3.6 22:47:33 10° NNE 22:52:11 41° NW 22:56:47 10° WSW
H-2A R/B 3.9 22:57:30 30° WNW 22:57:30 30° WNW 23:00:21 10° NNW
ATLAS 5 CENTAUR R/B 3.6 22:53:57 10° W 22:58:31 32° NNW 23:01:36 19° NNE
Cosmos 1697 Rocket 4.4 22:56:27 10° NNW 23:00:06 23° NNE 23:00:06 23° NNE
ARGOS 4.3 23:19:53 39° WNW 23:19:53 39° WNW 23:23:45 10° NNW
Lacrosse 4 Rocket 4.3 23:16:31 10° N 23:17:47 14° N 23:17:47 14° N
Terra 4.0 23:34:45 23° NNW 23:34:45 23° NNW 23:36:35 10° NNW
CENTAUR R/B 3.3 23:31:33 10° WSW 23:37:48 52° NNW 23:44:57 10° NE
Cosmos 1980 Rocket 4.0 23:34:02 10° NNW 23:37:14 24° NNE 23:37:14 24° NNE
